DAL864 PHNL-KLAX

Flight info

Callsign DAL864
Flight time 4h 39m
Altitude 39000
Route MKK5 CODDY FITES R578 FOMAS/N0479F410 R578 FICKY GOATZ2
Aircraft A359/H-SDE2E3GHIJ3J4J5LM1ORWXY/LB1D1

Departure

Time 2026-05-04 13:38
Airport Daniel K. Inouye International Airport (PHNL)

Arrival

Time 2026-05-04 18:17
Airport Los Angeles International Airport (KLAX)
Time Latitude Longitude Altitude Speed Heading
2026-05-04 12:37 21.33082 -157.91875 30 ft 0 kts
2026-05-04 13:26 21.33072 -157.91877 29 ft 4 kts
2026-05-04 13:26 21.33045 -157.91882 29 ft 4 kts
2026-05-04 13:26 21.33018 -157.91886 29 ft 4 kts
2026-05-04 13:27 21.32991 -157.91891 29 ft 4 kts
2026-05-04 13:27 21.32964 -157.91896 30 ft 4 kts
2026-05-04 13:27 21.32938 -157.91900 29 ft 4 kts
2026-05-04 13:27 21.32911 -157.91905 29 ft 4 kts
2026-05-04 13:28 21.32884 -157.91910 29 ft 4 kts
2026-05-04 13:28 21.32858 -157.91914 29 ft 4 kts
2026-05-04 13:28 21.32836 -157.91918 29 ft 4 kts
2026-05-04 13:28 21.32809 -157.91918 29 ft 4 kts 347°
2026-05-04 13:29 21.32785 -157.91908 29 ft 4 kts 317°
2026-05-04 13:29 21.32772 -157.91886 28 ft 4 kts 272°
2026-05-04 13:29 21.32772 -157.91858 28 ft 4 kts 269°
2026-05-04 13:29 21.32772 -157.91829 30 ft 4 kts 269°
2026-05-04 13:30 21.32773 -157.91817 30 ft 0 kts 269°
2026-05-04 13:33 21.32773 -157.91852 29 ft 12 kts 271°
2026-05-04 13:33 21.32775 -157.91978 30 ft 20 kts 270°
2026-05-04 13:33 21.32776 -157.92142 30 ft 23 kts 270°
2026-05-04 13:34 21.32735 -157.92251 30 ft 15 kts 197°
2026-05-04 13:34 21.32615 -157.92259 30 ft 19 kts 180°
2026-05-04 13:34 21.32483 -157.92210 30 ft 22 kts 150°
2026-05-04 13:34 21.32346 -157.92125 30 ft 24 kts 147°
2026-05-04 13:35 21.32195 -157.92033 30 ft 26 kts 151°
2026-05-04 13:35 21.31882 -157.91839 30 ft 16 kts 151°
2026-05-04 13:35 21.31804 -157.91844 30 ft 13 kts 223°
2026-05-04 13:36 21.31733 -157.91939 30 ft 19 kts 233°
2026-05-04 13:36 21.31642 -157.92070 30 ft 25 kts 233°
2026-05-04 13:36 21.31529 -157.92231 30 ft 29 kts 233°
2026-05-04 13:36 21.31415 -157.92394 30 ft 28 kts 233°
2026-05-04 13:37 21.31332 -157.92510 31 ft 18 kts 232°
2026-05-04 13:37 21.31305 -157.92616 31 ft 14 kts 300°
2026-05-04 13:37 21.31381 -157.92685 31 ft 10 kts 333°
2026-05-04 13:37 21.31422 -157.92673 31 ft 10 kts 39°
2026-05-04 13:38 21.31558 -157.92482 31 ft 63 kts 53°
2026-05-04 13:38 21.31958 -157.91915 30 ft 125 kts 53°
2026-05-04 13:38 21.32574 -157.91068 317 ft 152 kts 54°
2026-05-04 13:38 21.33077 -157.90042 876 ft 161 kts 73°
2026-05-04 13:39 21.33081 -157.88820 1609 ft 171 kts 101°
2026-05-04 13:39 21.32558 -157.87641 2365 ft 180 kts 117°
2026-05-04 13:39 21.31902 -157.86487 3051 ft 182 kts 115°
2026-05-04 13:39 21.31231 -157.85326 3737 ft 183 kts 115°
2026-05-04 13:40 21.30523 -157.84194 4380 ft 183 kts 120°
2026-05-04 13:40 21.29770 -157.82974 4548 ft 216 kts 121°
2026-05-04 13:40 21.28902 -157.81447 4521 ft 256 kts 117°
2026-05-04 13:40 21.28136 -157.79696 5181 ft 259 kts 102°
2026-05-04 13:41 21.27840 -157.77801 5999 ft 261 kts 106°
2026-05-04 13:41 21.27312 -157.75892 6597 ft 271 kts 108°
2026-05-04 13:41 21.26778 -157.73937 7388 ft 274 kts 106°
2026-05-04 13:42 21.25792 -157.69930 8985 ft 282 kts 105°
2026-05-04 13:42 21.25321 -157.67899 9743 ft 287 kts 104°
2026-05-04 13:42 21.24841 -157.65791 10368 ft 298 kts 104°
2026-05-04 13:42 21.24338 -157.63560 10680 ft 318 kts 104°
2026-05-04 13:43 21.23806 -157.61192 10999 ft 336 kts 104°
2026-05-04 13:43 21.23248 -157.58700 11297 ft 353 kts 104°
2026-05-04 13:43 21.22664 -157.56091 11652 ft 365 kts 104°
2026-05-04 13:43 21.22066 -157.53422 12187 ft 372 kts 104°
2026-05-04 13:44 21.21458 -157.50709 12743 ft 377 kts 104°
2026-05-04 13:44 21.20842 -157.47959 13327 ft 381 kts 105°
2026-05-04 13:44 21.20217 -157.45176 13877 ft 386 kts 104°
2026-05-04 13:44 21.19587 -157.42371 14414 ft 389 kts 104°
2026-05-04 13:45 21.18945 -157.39511 14953 ft 391 kts 104°
2026-05-04 13:45 21.18311 -157.36692 15380 ft 397 kts 104°
2026-05-04 13:45 21.17651 -157.33762 15824 ft 402 kts 104°
2026-05-04 13:45 21.17000 -157.30871 16310 ft 405 kts 104°
2026-05-04 13:46 21.16326 -157.27883 16816 ft 408 kts 104°
2026-05-04 13:46 21.15665 -157.24954 17253 ft 414 kts 104°
2026-05-04 13:46 21.14985 -157.21943 17658 ft 419 kts 103°
2026-05-04 13:46 21.14470 -157.18864 18210 ft 419 kts 94°
2026-05-04 13:47 21.14559 -157.15753 18737 ft 419 kts 80°
2026-05-04 13:47 21.15386 -157.12758 19117 ft 422 kts 67°
2026-05-04 13:47 21.16519 -157.09831 19407 ft 429 kts 65°
2026-05-04 13:47 21.17708 -157.06878 19742 ft 434 kts 65°
2026-05-04 13:48 21.18905 -157.03900 20287 ft 435 kts 65°
2026-05-04 13:48 21.20101 -157.00911 20710 ft 438 kts 65°
2026-05-04 13:48 21.21301 -156.97896 21155 ft 442 kts 65°
2026-05-04 13:48 21.22507 -156.94863 21665 ft 444 kts 65°
2026-05-04 13:49 21.23720 -156.91807 22102 ft 447 kts 65°
2026-05-04 13:49 21.24528 -156.89769 22436 ft 449 kts 65°
2026-05-04 13:49 21.25752 -156.86682 22874 ft 452 kts 65°
2026-05-04 13:49 21.26982 -156.83576 23354 ft 455 kts 65°
2026-05-04 13:50 21.28222 -156.80439 23792 ft 458 kts 65°
2026-05-04 13:50 21.29468 -156.77287 24179 ft 461 kts 65°
2026-05-04 13:50 21.30723 -156.74111 24618 ft 463 kts 65°
2026-05-04 13:50 21.31978 -156.70920 25057 ft 466 kts 66°
2026-05-04 13:51 21.33037 -156.67616 25493 ft 471 kts 74°
2026-05-04 13:51 21.33583 -156.64135 25976 ft 475 kts 83°
2026-05-04 13:51 21.33841 -156.60591 26400 ft 478 kts 85°
2026-05-04 13:51 21.34054 -156.57022 26864 ft 481 kts 85°
2026-05-04 13:52 21.34485 -156.49827 27773 ft 486 kts 85°
2026-05-04 13:52 21.34707 -156.46200 28211 ft 489 kts 85°
2026-05-04 13:52 21.34932 -156.42545 28636 ft 492 kts 85°
2026-05-04 13:53 21.35157 -156.38878 29048 ft 495 kts 85°
2026-05-04 13:53 21.35385 -156.35174 29420 ft 499 kts 85°
2026-05-04 13:53 21.35613 -156.31447 29808 ft 502 kts 85°
2026-05-04 13:54 21.36072 -156.23925 30524 ft 508 kts 85°
2026-05-04 13:54 21.36302 -156.20134 30835 ft 511 kts 85°
2026-05-04 13:54 21.36763 -156.12491 31407 ft 517 kts 85°
2026-05-04 13:55 21.36995 -156.08634 31689 ft 519 kts 85°
2026-05-04 13:55 21.37458 -156.00860 32252 ft 524 kts 85°
2026-05-04 13:55 21.37691 -155.96948 32501 ft 527 kts 85°
2026-05-04 13:56 21.37923 -155.93013 32759 ft 529 kts 85°
2026-05-04 13:56 21.38155 -155.89071 33109 ft 529 kts 85°
2026-05-04 13:56 21.38615 -155.81201 33843 ft 528 kts 85°
2026-05-04 13:57 21.38844 -155.77268 34165 ft 529 kts 85°
2026-05-04 13:57 21.39072 -155.73327 34447 ft 529 kts 85°
2026-05-04 13:58 21.39748 -155.61557 35244 ft 530 kts 85°
2026-05-04 13:58 21.40196 -155.53670 35768 ft 530 kts 86°
2026-05-04 13:58 21.40419 -155.49722 36016 ft 530 kts 86°
2026-05-04 13:59 21.40641 -155.45771 36255 ft 531 kts 86°
2026-05-04 13:59 21.40863 -155.41812 36485 ft 531 kts 86°
2026-05-04 13:59 21.41304 -155.33891 36947 ft 532 kts 86°
2026-05-04 14:00 21.41524 -155.29925 37184 ft 532 kts 86°
2026-05-04 14:00 21.41960 -155.21982 37593 ft 533 kts 86°
2026-05-04 14:00 21.42164 -155.18019 37805 ft 533 kts 88°
2026-05-04 14:01 21.42055 -155.14042 37988 ft 533 kts 97°
2026-05-04 14:01 21.41355 -155.10151 38196 ft 531 kts 106°
2026-05-04 14:01 21.39287 -155.02538 38586 ft 531 kts 109°
2026-05-04 14:02 21.38171 -154.98762 38770 ft 531 kts 109°
2026-05-04 14:02 21.37046 -154.94988 38926 ft 531 kts 109°
2026-05-04 14:02 21.35939 -154.91256 39028 ft 532 kts 109°
2026-05-04 14:03 21.33720 -154.83675 39113 ft 533 kts 109°
2026-05-04 14:03 21.31519 -154.76082 39115 ft 532 kts 109°
2026-05-04 14:04 21.28225 -154.64712 39118 ft 532 kts 109°
2026-05-04 14:04 21.26022 -154.57130 39116 ft 532 kts 109°
2026-05-04 14:05 21.22724 -154.45809 39116 ft 532 kts 109°
2026-05-04 14:06 21.20513 -154.38239 39115 ft 532 kts 109°
2026-05-04 14:06 21.18299 -154.30671 39118 ft 533 kts 109°
2026-05-04 14:07 21.16076 -154.23090 39120 ft 533 kts 109°
2026-05-04 14:07 21.13849 -154.15506 39116 ft 534 kts 109°
2026-05-04 14:08 21.11618 -154.07921 39116 ft 534 kts 109°
2026-05-04 14:08 21.09384 -154.00338 39111 ft 534 kts 109°
2026-05-04 14:09 21.06023 -153.88961 39115 ft 534 kts 109°
2026-05-04 14:10 21.02655 -153.77587 39113 ft 534 kts 109°
2026-05-04 14:10 21.00404 -153.70004 39110 ft 535 kts 110°
2026-05-04 14:11 20.98146 -153.62412 39115 ft 535 kts 110°
2026-05-04 14:11 20.94752 -153.51024 39110 ft 536 kts 110°
2026-05-04 14:12 20.92484 -153.43433 39110 ft 536 kts 110°
2026-05-04 14:13 20.89090 -153.32093 39115 ft 536 kts 110°
2026-05-04 14:13 20.86814 -153.24506 39113 ft 536 kts 110°
2026-05-04 14:14 20.84532 -153.16915 39120 ft 536 kts 110°
2026-05-04 14:14 20.81443 -153.05411 39115 ft 541 kts 99°
2026-05-04 14:15 20.81663 -152.97396 39126 ft 541 kts 76°
2026-05-04 14:15 20.84374 -152.89974 39110 ft 536 kts 61°
2026-05-04 14:16 20.89633 -152.79435 39109 ft 536 kts 59°
2026-05-04 14:17 20.94940 -152.68896 39112 ft 536 kts 59°
2026-05-04 14:18 21.00181 -152.58312 39115 ft 536 kts 59°
2026-05-04 14:19 21.07121 -152.44238 39114 ft 535 kts 59°
2026-05-04 14:19 21.10613 -152.37147 39117 ft 535 kts 60°
2026-05-04 14:20 21.14085 -152.30089 39121 ft 535 kts 60°
2026-05-04 14:20 21.17550 -152.23036 39121 ft 535 kts 60°
2026-05-04 14:21 21.22744 -152.12446 39117 ft 535 kts 60°
2026-05-04 14:21 21.26204 -152.05379 39128 ft 535 kts 60°
2026-05-04 14:22 21.29658 -151.98314 39118 ft 534 kts 60°
2026-05-04 14:22 21.33105 -151.91256 39116 ft 534 kts 60°
2026-05-04 14:23 21.38271 -151.80661 39122 ft 534 kts 60°
2026-05-04 14:24 21.41714 -151.73588 39129 ft 534 kts 60°
2026-05-04 14:24 21.45128 -151.66563 39125 ft 534 kts 60°
2026-05-04 14:25 21.48563 -151.59486 39129 ft 534 kts 60°
2026-05-04 14:25 21.53704 -151.48878 39127 ft 533 kts 60°
2026-05-04 14:26 21.57112 -151.41798 39129 ft 534 kts 60°
2026-05-04 14:26 21.60450 -151.34673 39130 ft 534 kts 61°
2026-05-04 14:27 21.63780 -151.27537 39130 ft 534 kts 61°
2026-05-04 14:27 21.67115 -151.20411 39144 ft 534 kts 60°
2026-05-04 14:28 21.70456 -151.13279 39130 ft 533 kts 60°
2026-05-04 14:28 21.73790 -151.06156 39134 ft 533 kts 61°
2026-05-04 14:29 21.80447 -150.91900 39134 ft 533 kts 61°
2026-05-04 14:30 21.83771 -150.84767 39140 ft 533 kts 61°
2026-05-04 14:31 21.88754 -150.74055 39145 ft 533 kts 61°
2026-05-04 14:32 21.95378 -150.59778 39134 ft 533 kts 61°
2026-05-04 14:32 21.98688 -150.52630 39138 ft 533 kts 61°
2026-05-04 14:33 22.01993 -150.45484 39138 ft 533 kts 61°
2026-05-04 14:33 22.04737 -150.39541 39141 ft 533 kts 61°
2026-05-04 14:34 22.08573 -150.31223 39140 ft 533 kts 61°
2026-05-04 14:34 22.11869 -150.24065 39136 ft 533 kts 61°
2026-05-04 14:35 22.14630 -150.18061 39148 ft 533 kts 61°
2026-05-04 14:35 22.17919 -150.10899 39149 ft 532 kts 61°
2026-05-04 14:36 22.21202 -150.03741 39152 ft 532 kts 61°
2026-05-04 14:36 22.24481 -149.96582 39150 ft 532 kts 61°
2026-05-04 14:37 22.27761 -149.89409 39152 ft 532 kts 61°
2026-05-04 14:37 22.31034 -149.82241 39151 ft 532 kts 61°
2026-05-04 14:38 22.34301 -149.75076 39148 ft 532 kts 61°
2026-05-04 14:38 22.37546 -149.67951 39149 ft 532 kts 61°
2026-05-04 14:39 22.40807 -149.60779 39157 ft 532 kts 61°
2026-05-04 14:39 22.44066 -149.53601 39157 ft 531 kts 61°
2026-05-04 14:40 22.48941 -149.42843 39150 ft 531 kts 61°
2026-05-04 14:40 22.52188 -149.35667 39151 ft 531 kts 61°
2026-05-04 14:41 22.55431 -149.28489 39150 ft 531 kts 61°
2026-05-04 14:42 22.61906 -149.14125 39153 ft 531 kts 61°
2026-05-04 14:42 22.65134 -149.06947 39153 ft 531 kts 61°
2026-05-04 14:43 22.68362 -148.99759 39154 ft 530 kts 61°
2026-05-04 14:43 22.71584 -148.92575 39153 ft 530 kts 61°
2026-05-04 14:44 22.74802 -148.85390 39155 ft 530 kts 61°
2026-05-04 14:44 22.78014 -148.78207 39152 ft 530 kts 61°
2026-05-04 14:45 22.81224 -148.71017 39154 ft 530 kts 61°
2026-05-04 14:45 22.84411 -148.63868 39166 ft 530 kts 61°
2026-05-04 14:46 22.87615 -148.56671 39154 ft 530 kts 61°
2026-05-04 14:46 22.90813 -148.49476 39154 ft 530 kts 61°
2026-05-04 14:47 22.94010 -148.42274 39157 ft 529 kts 61°
2026-05-04 14:47 22.97201 -148.35073 39157 ft 529 kts 61°
2026-05-04 14:48 23.00384 -148.27881 39157 ft 529 kts 61°
2026-05-04 14:48 23.03567 -148.20678 39164 ft 529 kts 61°
2026-05-04 14:49 23.06745 -148.13476 39156 ft 528 kts 62°
2026-05-04 14:49 23.09914 -148.06281 39156 ft 528 kts 62°
2026-05-04 14:50 23.13082 -147.99081 39157 ft 528 kts 62°
2026-05-04 14:50 23.16246 -147.91876 39153 ft 528 kts 62°
2026-05-04 14:51 23.19404 -147.84675 39156 ft 527 kts 62°
2026-05-04 14:51 23.22556 -147.77478 39163 ft 527 kts 62°
2026-05-04 14:52 23.25706 -147.70274 39161 ft 527 kts 62°
2026-05-04 14:52 23.28830 -147.63118 39161 ft 527 kts 62°
2026-05-04 14:53 23.31971 -147.55913 39161 ft 527 kts 62°
2026-05-04 14:53 23.35106 -147.48711 39163 ft 527 kts 62°
2026-05-04 14:54 23.38264 -147.41443 39164 ft 527 kts 62°
2026-05-04 14:54 23.41373 -147.34278 39162 ft 527 kts 62°
2026-05-04 14:55 23.44497 -147.27069 39162 ft 526 kts 62°
2026-05-04 14:55 23.47617 -147.19858 39162 ft 526 kts 62°
2026-05-04 14:56 23.50734 -147.12642 39165 ft 526 kts 62°
2026-05-04 14:56 23.53846 -147.05425 39165 ft 526 kts 62°
2026-05-04 14:57 23.56951 -146.98214 39176 ft 526 kts 62°
2026-05-04 14:57 23.60052 -146.91003 39165 ft 525 kts 62°
2026-05-04 14:58 23.63150 -146.83785 39162 ft 526 kts 62°
2026-05-04 14:58 23.66244 -146.76567 39165 ft 525 kts 62°
2026-05-04 14:59 23.69335 -146.69345 39165 ft 525 kts 62°
2026-05-04 15:00 23.73942 -146.58557 39178 ft 525 kts 62°
2026-05-04 15:00 23.77022 -146.51333 39170 ft 525 kts 62°
2026-05-04 15:01 23.81635 -146.40490 39168 ft 525 kts 62°
2026-05-04 15:01 23.84706 -146.33258 39170 ft 525 kts 62°
2026-05-04 15:02 23.87772 -146.26028 39170 ft 524 kts 62°
2026-05-04 15:02 23.90832 -146.18798 39189 ft 524 kts 62°
2026-05-04 15:03 23.93888 -146.11566 39172 ft 524 kts 62°
2026-05-04 15:03 23.96942 -146.04329 39170 ft 524 kts 62°
2026-05-04 15:04 23.99994 -145.97084 39170 ft 524 kts 62°
2026-05-04 15:04 24.03041 -145.89840 39170 ft 524 kts 62°
2026-05-04 15:05 24.06086 -145.82588 39174 ft 524 kts 63°
2026-05-04 15:05 24.09106 -145.75387 39173 ft 524 kts 62°
2026-05-04 15:06 24.12141 -145.68136 39174 ft 524 kts 63°
2026-05-04 15:07 24.16687 -145.57254 39173 ft 524 kts 63°
2026-05-04 15:07 24.19713 -145.49997 39172 ft 524 kts 63°
2026-05-04 15:08 24.22736 -145.42734 39172 ft 524 kts 63°
2026-05-04 15:08 24.25754 -145.35474 39176 ft 524 kts 63°
2026-05-04 15:09 24.28767 -145.28211 39176 ft 524 kts 63°
2026-05-04 15:09 24.31777 -145.20944 39178 ft 523 kts 63°
2026-05-04 15:10 24.36287 -145.10037 39181 ft 523 kts 63°
2026-05-04 15:11 24.40788 -144.99122 39182 ft 523 kts 63°
2026-05-04 15:11 24.43788 -144.91846 39177 ft 523 kts 63°
2026-05-04 15:12 24.46781 -144.84576 39177 ft 523 kts 63°
2026-05-04 15:12 24.49773 -144.77297 39184 ft 523 kts 63°
2026-05-04 15:13 24.52761 -144.70016 39179 ft 523 kts 63°
2026-05-04 15:13 24.55744 -144.62734 39194 ft 523 kts 63°
2026-05-04 15:14 24.58726 -144.55443 39186 ft 523 kts 63°
2026-05-04 15:14 24.61702 -144.48156 39187 ft 523 kts 63°
2026-05-04 15:15 24.64673 -144.40868 39185 ft 523 kts 63°
2026-05-04 15:15 24.67643 -144.33569 39186 ft 523 kts 63°
2026-05-04 15:16 24.72090 -144.22620 39192 ft 523 kts 63°
2026-05-04 15:17 24.76506 -144.11718 39190 ft 522 kts 63°
2026-05-04 15:17 24.80955 -144.00709 39198 ft 522 kts 63°
2026-05-04 15:18 24.83884 -143.93446 39191 ft 522 kts 63°
2026-05-04 15:19 24.88298 -143.82477 39195 ft 522 kts 63°
2026-05-04 15:19 24.92703 -143.71503 39194 ft 522 kts 63°
2026-05-04 15:20 24.95162 -143.65364 39200 ft 522 kts 63°
2026-05-04 15:20 24.98076 -143.58080 39195 ft 522 kts 63°
2026-05-04 15:21 25.01004 -143.50746 39204 ft 522 kts 63°
2026-05-04 15:22 25.05390 -143.39739 39198 ft 522 kts 64°
2026-05-04 15:22 25.09764 -143.28733 39200 ft 522 kts 64°
2026-05-04 15:23 25.12675 -143.21393 39200 ft 522 kts 64°
2026-05-04 15:23 25.15580 -143.14053 39206 ft 522 kts 64°
2026-05-04 15:24 25.21381 -142.99363 39203 ft 522 kts 64°
2026-05-04 15:25 25.24273 -142.92019 39203 ft 522 kts 64°
2026-05-04 15:26 25.28608 -142.80989 39203 ft 522 kts 64°
2026-05-04 15:26 25.32914 -142.70003 39208 ft 521 kts 64°
2026-05-04 15:27 25.37227 -142.58972 39208 ft 521 kts 64°
2026-05-04 15:28 25.41533 -142.47929 39211 ft 521 kts 64°
2026-05-04 15:29 25.45833 -142.36874 39212 ft 521 kts 64°
2026-05-04 15:30 25.55825 -142.11065 39213 ft 521 kts 64°
2026-05-04 15:31 25.60096 -141.99986 39214 ft 521 kts 64°
2026-05-04 15:32 25.67199 -141.81494 39216 ft 522 kts 64°
2026-05-04 15:34 25.74279 -141.62978 39216 ft 521 kts 64°
2026-05-04 15:34 25.78514 -141.51862 39211 ft 521 kts 64°
2026-05-04 15:35 25.82738 -141.40745 39216 ft 521 kts 64°
2026-05-04 15:36 25.86957 -141.29611 39219 ft 521 kts 64°
2026-05-04 15:36 25.89761 -141.22195 39219 ft 521 kts 64°
2026-05-04 15:37 25.92546 -141.14816 39219 ft 521 kts 64°
2026-05-04 15:37 25.95346 -141.07383 39219 ft 521 kts 64°
2026-05-04 15:38 25.98138 -140.99959 39228 ft 521 kts 64°
2026-05-04 15:38 26.00927 -140.92526 39220 ft 520 kts 64°
2026-05-04 15:39 26.03709 -140.85101 39217 ft 520 kts 64°
2026-05-04 15:40 26.07878 -140.73949 39217 ft 520 kts 65°
2026-05-04 15:40 26.10651 -140.66513 39233 ft 521 kts 65°
2026-05-04 15:41 26.13418 -140.59078 39219 ft 519 kts 65°
2026-05-04 15:41 26.16179 -140.51648 39220 ft 519 kts 65°
2026-05-04 15:42 26.18935 -140.44218 39221 ft 519 kts 65°
2026-05-04 15:42 26.21689 -140.36777 39223 ft 519 kts 65°
2026-05-04 15:43 26.24440 -140.29333 39220 ft 519 kts 65°
2026-05-04 15:43 26.27181 -140.21898 39216 ft 519 kts 65°
2026-05-04 15:44 26.29919 -140.14461 39221 ft 519 kts 65°
2026-05-04 15:44 26.32653 -140.07020 39219 ft 519 kts 65°
2026-05-04 15:45 26.35382 -139.99579 39233 ft 519 kts 65°
2026-05-04 15:45 26.38108 -139.92131 39226 ft 518 kts 65°
2026-05-04 15:46 26.40830 -139.84681 39227 ft 518 kts 65°
2026-05-04 15:46 26.43546 -139.77233 39223 ft 518 kts 65°
2026-05-04 15:47 26.46243 -139.69823 39223 ft 518 kts 65°
2026-05-04 15:47 26.48949 -139.62372 39227 ft 518 kts 65°
2026-05-04 15:48 26.51653 -139.54916 39227 ft 518 kts 65°
2026-05-04 15:48 26.55699 -139.43730 39224 ft 518 kts 65°
2026-05-04 15:49 26.58391 -139.36270 39221 ft 518 kts 65°
2026-05-04 15:49 26.61081 -139.28801 39228 ft 518 kts 65°
2026-05-04 15:50 26.63766 -139.21334 39231 ft 518 kts 65°
2026-05-04 15:50 26.66447 -139.13862 39227 ft 518 kts 65°
2026-05-04 15:51 26.69123 -139.06388 39224 ft 518 kts 66°
2026-05-04 15:51 26.71798 -138.98904 39239 ft 518 kts 66°
2026-05-04 15:52 26.74470 -138.91414 39228 ft 518 kts 66°
2026-05-04 15:52 26.77118 -138.83976 39227 ft 518 kts 66°
2026-05-04 15:53 26.79782 -138.76477 39225 ft 518 kts 66°
2026-05-04 15:53 26.82442 -138.68979 39228 ft 518 kts 66°
2026-05-04 15:54 26.85098 -138.61474 39228 ft 518 kts 66°
2026-05-04 15:54 26.87749 -138.53968 39226 ft 518 kts 66°
2026-05-04 15:55 26.90398 -138.46455 39227 ft 518 kts 66°
2026-05-04 15:55 26.93042 -138.38942 39223 ft 518 kts 66°
2026-05-04 15:56 26.95682 -138.31426 39227 ft 519 kts 66°
2026-05-04 15:56 26.98320 -138.23898 39221 ft 519 kts 66°
2026-05-04 15:57 27.00955 -138.16366 39228 ft 519 kts 66°
2026-05-04 15:57 27.03580 -138.08822 39230 ft 519 kts 66°
2026-05-04 15:58 27.06200 -138.01274 39235 ft 519 kts 66°
2026-05-04 15:58 27.08818 -137.93721 39229 ft 520 kts 66°
2026-05-04 15:59 27.11417 -137.86209 39230 ft 520 kts 66°
2026-05-04 15:59 27.14031 -137.78641 39230 ft 520 kts 66°
2026-05-04 16:00 27.16641 -137.71067 39237 ft 520 kts 66°
2026-05-04 16:00 27.19248 -137.63488 39233 ft 521 kts 66°
2026-05-04 16:01 27.21855 -137.55892 39230 ft 521 kts 66°
2026-05-04 16:01 27.24458 -137.48294 39230 ft 521 kts 67°
2026-05-04 16:02 27.27059 -137.40684 39240 ft 521 kts 66°
2026-05-04 16:03 27.30957 -137.29254 39338 ft 523 kts 67°
2026-05-04 16:03 27.32258 -137.25430 39527 ft 523 kts 67°
2026-05-04 16:03 27.33555 -137.21615 39722 ft 522 kts 67°
2026-05-04 16:03 27.34850 -137.17801 39902 ft 522 kts 67°
2026-05-04 16:04 27.36145 -137.13981 40053 ft 522 kts 67°
2026-05-04 16:04 27.38734 -137.06337 40368 ft 523 kts 67°
2026-05-04 16:04 27.40027 -137.02515 40527 ft 523 kts 67°
2026-05-04 16:05 27.41317 -136.98697 40668 ft 522 kts 67°
2026-05-04 16:05 27.42591 -136.94920 40830 ft 523 kts 67°
2026-05-04 16:05 27.45173 -136.87259 41093 ft 523 kts 67°
2026-05-04 16:06 27.46462 -136.83427 41208 ft 523 kts 67°
2026-05-04 16:07 27.51168 -136.69401 41231 ft 523 kts 67°
2026-05-04 16:08 27.56291 -136.54076 41237 ft 523 kts 67°
2026-05-04 16:09 27.62679 -136.34871 41224 ft 523 kts 67°
2026-05-04 16:10 27.67774 -136.19484 41248 ft 524 kts 67°
2026-05-04 16:11 27.72855 -136.04068 41226 ft 524 kts 67°
2026-05-04 16:12 27.80455 -135.80889 41225 ft 525 kts 67°
2026-05-04 16:13 27.85505 -135.65406 41225 ft 525 kts 67°
2026-05-04 16:14 27.90538 -135.49904 41222 ft 525 kts 67°
2026-05-04 16:16 27.96786 -135.30564 41238 ft 525 kts 67°
2026-05-04 16:17 28.03031 -135.11131 41220 ft 526 kts 67°
2026-05-04 16:18 28.08007 -134.95563 41220 ft 525 kts 66°
2026-05-04 16:19 28.14187 -134.76137 41199 ft 524 kts 66°
2026-05-04 16:20 28.20334 -134.56705 41220 ft 524 kts 66°
2026-05-04 16:22 28.26442 -134.37289 41213 ft 524 kts 66°
2026-05-04 16:23 28.33761 -134.13878 41216 ft 525 kts 66°
2026-05-04 16:25 28.41046 -133.90414 41212 ft 525 kts 66°
2026-05-04 16:26 28.49504 -133.62968 41231 ft 526 kts 66°
2026-05-04 16:28 28.55500 -133.43374 41213 ft 526 kts 66°
2026-05-04 16:29 28.63885 -133.15778 41212 ft 528 kts 66°
2026-05-04 16:31 28.69853 -132.96002 41209 ft 530 kts 67°
2026-05-04 16:32 28.77008 -132.72130 41205 ft 531 kts 67°
2026-05-04 16:33 28.81742 -132.56241 41204 ft 531 kts 67°
2026-05-04 16:34 28.85298 -132.44253 41202 ft 532 kts 67°
2026-05-04 16:35 28.92376 -132.20264 41202 ft 532 kts 67°
2026-05-04 16:36 28.95906 -132.08235 41207 ft 533 kts 67°
2026-05-04 16:37 28.99428 -131.96183 41209 ft 533 kts 67°
2026-05-04 16:38 29.04115 -131.80081 41199 ft 534 kts 67°
2026-05-04 16:39 29.09936 -131.59967 41211 ft 535 kts 68°
2026-05-04 16:40 29.14586 -131.43809 41201 ft 535 kts 68°
2026-05-04 16:41 29.20382 -131.23552 41195 ft 536 kts 68°
2026-05-04 16:43 29.26155 -131.03248 41193 ft 537 kts 68°
2026-05-04 16:43 29.29606 -130.91044 41197 ft 537 kts 68°
2026-05-04 16:45 29.36484 -130.66569 41187 ft 538 kts 68°
2026-05-04 16:46 29.42186 -130.46140 41198 ft 538 kts 68°
2026-05-04 16:47 29.46732 -130.29752 41178 ft 539 kts 68°
2026-05-04 16:48 29.51268 -130.13317 41182 ft 541 kts 69°
2026-05-04 16:49 29.55776 -129.96890 41155 ft 541 kts 69°
2026-05-04 16:50 29.60284 -129.80376 41189 ft 541 kts 69°
2026-05-04 16:51 29.63654 -129.67975 41182 ft 542 kts 69°
2026-05-04 16:52 29.68132 -129.51411 41179 ft 543 kts 70°
2026-05-04 16:53 29.71484 -129.38956 41177 ft 543 kts 70°
2026-05-04 16:54 29.75562 -129.23729 41175 ft 544 kts 70°
2026-05-04 16:55 29.82217 -128.98722 41170 ft 545 kts 70°
2026-05-04 16:56 29.87733 -128.77828 41170 ft 546 kts 71°
2026-05-04 16:57 29.91032 -128.65258 41182 ft 546 kts 71°
2026-05-04 16:58 29.95419 -128.48464 41168 ft 547 kts 71°
2026-05-04 17:00 30.01962 -128.23232 41165 ft 547 kts 71°
2026-05-04 17:01 30.07384 -128.02159 41162 ft 548 kts 72°
2026-05-04 17:02 30.11705 -127.85254 41156 ft 549 kts 72°
2026-05-04 17:03 30.14935 -127.72549 41157 ft 550 kts 72°
2026-05-04 17:03 30.18159 -127.59818 41156 ft 551 kts 72°
2026-05-04 17:04 30.22442 -127.42806 41155 ft 551 kts 73°
2026-05-04 17:05 30.26695 -127.25815 41148 ft 552 kts 73°
2026-05-04 17:06 30.29883 -127.13009 41153 ft 553 kts 73°
2026-05-04 17:07 30.32707 -127.01616 41150 ft 553 kts 73°
2026-05-04 17:07 30.35178 -126.91613 41151 ft 553 kts 73°
2026-05-04 17:08 30.38336 -126.78773 41151 ft 553 kts 73°
2026-05-04 17:09 30.40435 -126.70209 41146 ft 553 kts 73°
2026-05-04 17:09 30.42526 -126.61648 41145 ft 552 kts 74°
2026-05-04 17:10 30.47727 -126.40235 41145 ft 551 kts 74°
2026-05-04 17:11 30.49794 -126.31679 41143 ft 551 kts 74°
2026-05-04 17:12 30.52884 -126.18841 41142 ft 551 kts 75°
2026-05-04 17:13 30.57988 -125.97498 41143 ft 550 kts 75°
2026-05-04 17:14 30.62053 -125.80378 41137 ft 550 kts 75°
2026-05-04 17:15 30.65089 -125.67527 41140 ft 550 kts 75°
2026-05-04 17:16 30.69116 -125.50371 41137 ft 550 kts 75°
2026-05-04 17:17 30.73113 -125.33239 41135 ft 551 kts 76°
2026-05-04 17:18 30.77104 -125.16021 41132 ft 552 kts 76°
2026-05-04 17:19 30.81082 -124.98749 41131 ft 553 kts 76°
2026-05-04 17:20 30.85043 -124.81435 41133 ft 554 kts 77°
2026-05-04 17:20 30.88001 -124.68427 41132 ft 555 kts 77°
2026-05-04 17:21 30.91938 -124.51014 41129 ft 556 kts 77°
2026-05-04 17:22 30.93900 -124.42299 41126 ft 557 kts 77°
2026-05-04 17:23 30.97817 -124.24792 41127 ft 558 kts 77°
2026-05-04 17:24 31.00745 -124.11631 41128 ft 561 kts 78°
2026-05-04 17:25 31.04639 -123.94019 41124 ft 561 kts 78°
2026-05-04 17:26 31.08519 -123.76350 41122 ft 563 kts 78°
2026-05-04 17:27 31.13335 -123.54246 41120 ft 565 kts 79°
2026-05-04 17:28 31.17004 -123.36410 41117 ft 565 kts 80°
2026-05-04 17:29 31.22470 -123.09572 41116 ft 566 kts 80°
2026-05-04 17:31 31.26982 -122.87208 41099 ft 567 kts 81°
2026-05-04 17:32 31.31491 -122.64645 41113 ft 570 kts 81°
2026-05-04 17:33 31.35079 -122.46530 41110 ft 573 kts 81°
2026-05-04 17:34 31.38654 -122.28344 41107 ft 574 kts 82°
2026-05-04 17:35 31.43091 -122.05566 41104 ft 574 kts 82°
2026-05-04 17:36 31.44855 -121.96443 41111 ft 575 kts 82°
2026-05-04 17:36 31.46613 -121.87315 41105 ft 575 kts 82°
2026-05-04 17:37 31.48366 -121.78177 41095 ft 575 kts 82°
2026-05-04 17:37 31.50113 -121.69032 41102 ft 576 kts 82°
2026-05-04 17:38 31.51856 -121.59874 41076 ft 576 kts 82°
2026-05-04 17:38 31.53301 -121.52251 41100 ft 577 kts 83°
2026-05-04 17:39 31.56528 -121.37049 41117 ft 584 kts 73°
2026-05-04 17:39 31.59055 -121.29632 41094 ft 585 kts 71°
2026-05-04 17:40 31.62139 -121.20802 41100 ft 585 kts 71°
2026-05-04 17:40 31.65204 -121.11955 41100 ft 585 kts 71°
2026-05-04 17:41 31.68256 -121.03113 41098 ft 584 kts 71°
2026-05-04 17:41 31.71296 -120.94275 41089 ft 584 kts 71°
2026-05-04 17:42 31.74223 -120.85740 41100 ft 584 kts 71°
2026-05-04 17:42 31.77051 -120.77474 41100 ft 584 kts 71°
2026-05-04 17:43 31.80073 -120.68617 41100 ft 584 kts 71°
2026-05-04 17:43 31.83092 -120.59746 41099 ft 584 kts 72°
2026-05-04 17:44 31.86101 -120.50879 41099 ft 584 kts 72°
2026-05-04 17:44 31.89106 -120.42002 41099 ft 584 kts 72°
2026-05-04 17:45 31.92106 -120.33115 41101 ft 584 kts 72°
2026-05-04 17:45 31.96018 -120.24718 41106 ft 589 kts 50°
2026-05-04 17:46 32.01476 -120.17621 40797 ft 587 kts 45°
2026-05-04 17:46 32.04320 -120.14067 40471 ft 588 kts 45°
2026-05-04 17:46 32.07086 -120.10599 39730 ft 591 kts 45°
2026-05-04 17:47 32.09902 -120.07052 39071 ft 594 kts 45°
2026-05-04 17:47 32.12731 -120.03482 38346 ft 596 kts 45°
2026-05-04 17:47 32.15561 -119.99904 37640 ft 597 kts 45°
2026-05-04 17:47 32.18392 -119.96318 36971 ft 597 kts 46°
2026-05-04 17:48 32.21226 -119.92723 36282 ft 598 kts 46°
2026-05-04 17:48 32.24062 -119.89123 35582 ft 600 kts 47°
2026-05-04 17:48 32.26907 -119.85506 34904 ft 601 kts 48°
2026-05-04 17:48 32.29748 -119.81891 34349 ft 599 kts 48°
2026-05-04 17:49 32.32571 -119.78293 33796 ft 596 kts 48°
2026-05-04 17:49 32.35384 -119.74705 33232 ft 593 kts 48°
2026-05-04 17:49 32.38176 -119.71139 32698 ft 589 kts 47°
2026-05-04 17:49 32.40955 -119.67588 32167 ft 585 kts 47°
2026-05-04 17:50 32.43711 -119.64063 31642 ft 582 kts 47°
2026-05-04 17:50 32.46450 -119.60555 31123 ft 579 kts 47°
2026-05-04 17:50 32.49181 -119.57063 30587 ft 576 kts 46°
2026-05-04 17:50 32.51893 -119.53586 30046 ft 573 kts 46°
2026-05-04 17:51 32.54581 -119.50134 29509 ft 568 kts 46°
2026-05-04 17:51 32.57250 -119.46700 28995 ft 564 kts 46°
2026-05-04 17:51 32.59893 -119.43299 28478 ft 559 kts 46°
2026-05-04 17:51 32.62517 -119.39919 27966 ft 554 kts 46°
2026-05-04 17:52 32.65113 -119.36572 27465 ft 549 kts 46°
2026-05-04 17:52 32.67685 -119.33255 26953 ft 544 kts 46°
2026-05-04 17:52 32.70237 -119.29960 26451 ft 539 kts 46°
2026-05-04 17:52 32.72764 -119.26695 25953 ft 535 kts 46°
2026-05-04 17:53 32.75272 -119.23450 25447 ft 530 kts 46°
2026-05-04 17:53 32.77756 -119.20234 24936 ft 526 kts 46°
2026-05-04 17:53 32.80219 -119.17043 24458 ft 521 kts 46°
2026-05-04 17:53 32.82656 -119.13882 23983 ft 516 kts 46°
2026-05-04 17:54 32.85068 -119.10752 23524 ft 510 kts 46°
2026-05-04 17:54 32.87448 -119.07658 22961 ft 504 kts 46°
2026-05-04 17:54 32.89805 -119.04594 22420 ft 499 kts 46°
2026-05-04 17:54 32.92105 -119.01601 21901 ft 493 kts 46°
2026-05-04 17:55 32.94406 -118.98603 21378 ft 487 kts 46°
2026-05-04 17:55 32.96679 -118.95640 20854 ft 482 kts 46°
2026-05-04 17:55 32.98924 -118.92711 20331 ft 477 kts 46°
2026-05-04 17:55 33.01144 -118.89813 19837 ft 471 kts 46°
2026-05-04 17:56 33.03337 -118.86946 19357 ft 465 kts 46°
2026-05-04 17:56 33.05504 -118.84113 18894 ft 459 kts 45°
2026-05-04 17:56 33.07638 -118.81319 18427 ft 453 kts 45°
2026-05-04 17:56 33.09749 -118.78555 17916 ft 448 kts 45°
2026-05-04 17:57 33.11828 -118.75831 17435 ft 441 kts 45°
2026-05-04 17:57 33.13874 -118.73146 16978 ft 434 kts 46°
2026-05-04 17:57 33.15874 -118.70521 16740 ft 421 kts 46°
2026-05-04 17:57 33.17825 -118.67958 16357 ft 414 kts 46°
2026-05-04 17:58 33.19735 -118.65427 15957 ft 407 kts 47°
2026-05-04 17:58 33.21551 -118.62876 15836 ft 401 kts 48°
2026-05-04 17:58 33.23349 -118.60322 15728 ft 401 kts 48°
2026-05-04 17:58 33.25145 -118.57779 15615 ft 400 kts 48°
2026-05-04 17:59 33.26937 -118.55248 15529 ft 397 kts 48°
2026-05-04 17:59 33.28719 -118.52736 15433 ft 395 kts 48°
2026-05-04 17:59 33.32258 -118.47730 15216 ft 393 kts 49°
2026-05-04 18:00 33.33663 -118.44941 15123 ft 393 kts 70°
2026-05-04 18:00 33.34150 -118.41771 15025 ft 386 kts 93°
2026-05-04 18:00 33.34022 -118.38581 14923 ft 384 kts 98°
2026-05-04 18:00 33.33806 -118.35395 14821 ft 384 kts 98°
2026-05-04 18:01 33.33599 -118.32255 14721 ft 383 kts 98°
2026-05-04 18:01 33.33403 -118.29084 14615 ft 382 kts 97°
2026-05-04 18:01 33.33216 -118.25919 14519 ft 381 kts 97°
2026-05-04 18:02 33.32849 -118.19598 14314 ft 381 kts 97°
2026-05-04 18:02 33.32668 -118.16440 14207 ft 380 kts 97°
2026-05-04 18:02 33.32507 -118.13289 14109 ft 380 kts 95°
2026-05-04 18:02 33.32856 -118.10151 14008 ft 384 kts 72°
2026-05-04 18:03 33.34131 -118.07371 13727 ft 381 kts 49°
2026-05-04 18:03 33.35923 -118.05052 13128 ft 379 kts 43°
2026-05-04 18:03 33.37788 -118.02839 12603 ft 376 kts 43°
2026-05-04 18:03 33.39770 -118.00860 12162 ft 366 kts 28°
2026-05-04 18:04 33.42099 -117.99848 11728 ft 351 kts
2026-05-04 18:04 33.44500 -117.99770 11329 ft 342 kts 354°
2026-05-04 18:04 33.49211 -118.00040 10534 ft 336 kts 353°
2026-05-04 18:05 33.51494 -118.00166 10332 ft 324 kts 354°
2026-05-04 18:05 33.53666 -118.00275 10036 ft 302 kts 354°
2026-05-04 18:05 33.55721 -118.00377 9548 ft 289 kts 354°
2026-05-04 18:05 33.57685 -118.00475 9157 ft 280 kts 354°
2026-05-04 18:06 33.61553 -118.00668 8489 ft 275 kts 354°
2026-05-04 18:06 33.63449 -118.00750 8189 ft 271 kts 354°
2026-05-04 18:06 33.65309 -118.01016 7923 ft 267 kts 343°
2026-05-04 18:07 33.67068 -118.01572 7821 ft 267 kts 341°
2026-05-04 18:07 33.68835 -118.02185 7693 ft 265 kts 340°
2026-05-04 18:07 33.70600 -118.02800 7565 ft 264 kts 341°
2026-05-04 18:07 33.72364 -118.03411 7437 ft 263 kts 341°
2026-05-04 18:08 33.74121 -118.04020 7309 ft 262 kts 341°
2026-05-04 18:08 33.75872 -118.04625 7151 ft 261 kts 341°
2026-05-04 18:08 33.77588 -118.05218 7031 ft 251 kts 341°
2026-05-04 18:08 33.79201 -118.05886 6880 ft 239 kts 336°
2026-05-04 18:09 33.82209 -118.07323 6394 ft 229 kts 335°
2026-05-04 18:09 33.85049 -118.08691 5773 ft 226 kts 335°
2026-05-04 18:10 33.86503 -118.09391 5468 ft 223 kts 335°
2026-05-04 18:10 33.87935 -118.10080 5212 ft 221 kts 335°
2026-05-04 18:10 33.89397 -118.10643 4973 ft 223 kts 347°
2026-05-04 18:10 33.90942 -118.10832 4786 ft 222 kts 354°
2026-05-04 18:11 33.92482 -118.11023 4598 ft 217 kts 343°
2026-05-04 18:11 33.93688 -118.11700 4415 ft 211 kts 323°
2026-05-04 18:11 33.94863 -118.12754 4104 ft 211 kts 318°
2026-05-04 18:11 33.95767 -118.14101 3892 ft 208 kts 291°
2026-05-04 18:12 33.96011 -118.15796 3660 ft 206 kts 270°
2026-05-04 18:12 33.95898 -118.17478 3561 ft 194 kts 262°
2026-05-04 18:12 33.95725 -118.19033 3421 ft 180 kts 261°
2026-05-04 18:12 33.95568 -118.20458 3244 ft 163 kts 261°
2026-05-04 18:13 33.95439 -118.21658 2960 ft 159 kts 261°
2026-05-04 18:13 33.95303 -118.22942 2715 ft 150 kts 261°
2026-05-04 18:13 33.95062 -118.25294 2244 ft 131 kts 260°
2026-05-04 18:14 33.94955 -118.26348 2052 ft 123 kts 260°
2026-05-04 18:14 33.94851 -118.27356 1900 ft 121 kts 260°
2026-05-04 18:14 33.94750 -118.28375 1741 ft 123 kts 260°
2026-05-04 18:15 33.94540 -118.30410 1508 ft 123 kts 261°
2026-05-04 18:15 33.94331 -118.32468 1102 ft 124 kts 261°
2026-05-04 18:15 33.94235 -118.33429 956 ft 126 kts 261°
2026-05-04 18:16 33.94128 -118.34454 758 ft 122 kts 261°
2026-05-04 18:16 33.94019 -118.35464 582 ft 123 kts 260°
2026-05-04 18:16 33.93904 -118.36492 397 ft 124 kts 264°
2026-05-04 18:17 33.93711 -118.38515 134 ft 119 kts 260°
2026-05-04 18:17 33.93621 -118.39404 111 ft 90 kts 263°
2026-05-04 18:17 33.93514 -118.40451 116 ft 38 kts 263°
2026-05-04 18:18 33.93486 -118.40756 118 ft 34 kts 264°
2026-05-04 18:18 33.93493 -118.41017 118 ft 30 kts 280°
2026-05-04 18:18 33.93539 -118.41171 112 ft 12 kts 294°
2026-05-04 18:18 33.93547 -118.41190 111 ft 0 kts 300°
2026-05-04 18:19 33.93549 -118.41194 111 ft 3 kts 301°
2026-05-04 18:19 33.93591 -118.41245 112 ft 13 kts 327°
2026-05-04 18:20 33.93697 -118.41275 112 ft 20 kts 358°
2026-05-04 18:20 33.93766 -118.41181 107 ft 18 kts 50°
2026-05-04 18:20 33.93890 -118.41162 104 ft 16 kts 353°
2026-05-04 18:20 33.93991 -118.41181 103 ft 5 kts
2026-05-04 18:21 33.94015 -118.41135 104 ft 9 kts 77°
2026-05-04 18:21 33.94020 -118.41078 101 ft 3 kts 82°
2026-05-04 18:21 33.94020 -118.41076 101 ft 1 kts 81°
2026-05-04 18:21 33.94021 -118.41072 101 ft 0 kts 81°